Location: Brunembert
(50.7122°N, 1.8935°E)
Time: 04:21:12
(UTC+00:00)

Cosmos 1666 Rocket - Pass Details

Date: 22 April 2021
Orbit: 604 x 632 km, 82.5° (Epoch: 06 May)

Event Time Altitude Azimuth Distance (km) Brightness Sun altitude
Rises 22:06:20 0° 354° (N) 2,939 8.2 -22.8°
Reaches altitude 10° 22:08:43 10° 2° (N) 2,024 7.0 -23.0°
Maximum altitude 22:12:57 40° 73° (ENE) 932 4.3 -23.3°
Enters shadow 22:13:00 40° 74° (ENE) 932 4.3 -23.3°
